"read_dt","SO2 (ppb)","flags","PMT voltage (V)","lamp voltage (V)","lamp intensity (Hz)","internal temp (C)","react chamber temp (C)","sample flow (l/min)","pres (mmHg)","SO2 bkg (ppb)","SO2 coefficient"
2014-03-11 00:00:00,6256E-2,5C000490,-0724,1375,5776,025.7,045.2,0.130,761.1,01.16,0.508
2014-03-11 00:01:00,6252E-2,5C000490,-0724,1375,5833,025.7,045.2,0.129,761.1,01.16,0.508
2014-03-11 00:02:00,6335E-2,5C000490,-0724,1375,5856,025.7,045.2,0.129,761.1,01.16,0.508
2014-03-11 00:03:00,6274E-2,5C000490,-0724,1375,5820,025.7,045.3,0.129,761.1,01.16,0.508
2014-03-11 00:04:00,6244E-2,5C000490,-0724,1375,5782,025.7,045.2,0.130,761.1,01.16,0.508
2014-03-11 00:05:00,6304E-2,5C000490,-0724,1375,5848,025.7,045.2,0.129,761.1,01.16,0.508
2014-03-11 00:06:00,6267E-2,5C000490,-0724,1375,5796,025.7,045.3,0.130,761.1,01.16,0.508
2014-03-11 00:07:00,6286E-2,5C000490,-0724,1375,5841,025.7,045.3,0.129,761.0,01.16,0.508
2014-03-11 00:08:00,6288E-2,5C000490,-0724,1375,5780,025.7,045.2,0.129,760.9,01.16,0.508
2014-03-11 00:09:00,6294E-2,5C000490,-0724,1375,5781,025.7,045.2,0.130,761.1,01.16,0.508
2014-03-11 00:10:00,6288E-2,5C000490,-0724,1375,5779,025.7,045.3,0.129,761.0,01.16,0.508
2014-03-11 00:11:00,6256E-2,5C000490,-0724,1375,5844,025.7,045.2,0.129,761.0,01.16,0.508
2014-03-11 00:12:00,6300E-2,5C000490,-0724,1375,5776,025.7,045.2,0.129,760.9,01.16,0.508
2014-03-11 00:13:00,6272E-2,5C000490,-0724,1375,5787,025.7,045.2,0.129,761.0,01.16,0.508
2014-03-11 00:14:00,6258E-2,5C000490,-0724,1375,5789,025.7,045.3,0.129,761.0,01.16,0.508
2014-03-11 00:15:00,6286E-2,5C000490,-0724,1375,5814,025.7,045.2,0.129,760.9,01.16,0.508
2014-03-11 00:16:00,6297E-2,5C000490,-0724,1375,5722,025.7,045.2,0.129,760.9,01.16,0.508
2014-03-11 00:17:00,6263E-2,5C000490,-0724,1375,5765,025.7,045.3,0.129,761.0,01.16,0.508
2014-03-11 00:18:00,6308E-2,5C000490,-0724,1375,5738,025.7,045.2,0.129,760.9,01.16,0.508
2014-03-11 00:19:00,6320E-2,5C000490,-0724,1375,5794,025.7,045.2,0.129,760.9,01.16,0.508
2014-03-11 00:20:00,6264E-2,5C000490,-0724,1375,5710,025.8,045.2,0.129,760.9,01.16,0.508
2014-03-11 00:21:00,6214E-2,5C000490,-0724,1375,5798,025.7,045.2,0.129,761.0,01.16,0.508
2014-03-11 00:22:00,6198E-2,5C000490,-0724,1375,5713,025.8,045.3,0.129,760.9,01.16,0.508
2014-03-11 00:23:00,6247E-2,5C000490,-0724,1375,5758,025.7,045.2,0.129,760.9,01.16,0.508
2014-03-11 00:24:00,6177E-2,5C000490,-0724,1375,5740,025.8,045.2,0.129,760.9,01.16,0.508
2014-03-11 00:25:00,6253E-2,5C000490,-0724,1375,5722,025.8,045.2,0.129,760.9,01.16,0.508
2014-03-11 00:26:00,6227E-2,5C000490,-0724,1375,5711,025.7,045.2,0.129,760.9,01.16,0.508
2014-03-11 00:27:00,6232E-2,5C000490,-0724,1375,5701,025.7,045.2,0.129,760.9,01.16,0.508
2014-03-11 00:28:00,6160E-2,5C000490,-0724,1375,5756,025.7,045.2,0.129,760.9,01.16,0.508
2014-03-11 00:29:00,6213E-2,5C000490,-0724,1375,5680,025.8,045.2,0.129,760.9,01.16,0.508
2014-03-11 00:30:00,6168E-2,5C000490,-0724,1375,5668,025.8,045.2,0.129,760.8,01.16,0.508
2014-03-11 00:31:00,6197E-2,5C000490,-0724,1375,5563,025.8,045.2,0.129,760.8,01.16,0.508
2014-03-11 00:32:00,6135E-2,5C000490,-0724,1375,5676,025.8,045.2,0.129,760.9,01.16,0.508
2014-03-11 00:33:00,6151E-2,5C000490,-0724,1375,5634,025.8,045.3,0.129,760.9,01.16,0.508
2014-03-11 00:34:00,6233E-2,5C000490,-0724,1375,5567,025.8,045.2,0.129,760.8,01.16,0.508
2014-03-11 00:35:00,6248E-2,5C000490,-0724,1375,5596,025.8,045.2,0.129,760.9,01.16,0.508
2014-03-11 00:36:00,6185E-2,5C000490,-0724,1375,5630,025.8,045.2,0.129,760.9,01.16,0.508
2014-03-11 00:37:00,6162E-2,5C000490,-0724,1375,5529,025.8,045.2,0.129,760.9,01.16,0.508
2014-03-11 00:38:00,6179E-2,5C000490,-0724,1375,5579,025.8,045.2,0.129,760.9,01.16,0.508
2014-03-11 00:39:00,6161E-2,5C000490,-0724,1375,5617,025.8,045.2,0.129,760.9,01.16,0.508
2014-03-11 00:40:00,6227E-2,5C000490,-0724,1375,5616,025.8,045.2,0.129,760.9,01.16,0.508
2014-03-11 00:41:00,6151E-2,5C000490,-0724,1375,5565,025.8,045.2,0.129,760.9,01.16,0.508
2014-03-11 00:42:00,6126E-2,5C000490,-0724,1375,5586,025.8,045.2,0.129,760.9,01.16,0.508
2014-03-11 00:43:00,6148E-2,5C000490,-0724,1375,5574,025.8,045.3,0.129,761.0,01.16,0.508
2014-03-11 00:44:00,6226E-2,5C000490,-0724,1375,5578,025.8,045.2,0.129,761.0,01.16,0.508
2014-03-11 00:45:00,6206E-2,5C000490,-0724,1375,5595,025.8,045.2,0.129,761.0,01.16,0.508
2014-03-11 00:46:00,6141E-2,5C000490,-0724,1375,5522,025.8,045.2,0.129,761.1,01.16,0.508
2014-03-11 00:47:00,6222E-2,5C000490,-0724,1375,5560,025.8,045.2,0.129,761.1,01.16,0.508
2014-03-11 00:48:00,6235E-2,5C000490,-0724,1375,5528,025.7,045.2,0.129,761.1,01.16,0.508
2014-03-11 00:49:00,6203E-2,5C000490,-0724,1375,5481,025.7,045.3,0.129,761.1,01.16,0.508
2014-03-11 00:50:00,6185E-2,5C000490,-0724,1375,5451,025.7,045.3,0.129,761.1,01.16,0.508
2014-03-11 00:51:00,6163E-2,5C000490,-0724,1375,5443,025.7,045.2,0.129,761.1,01.16,0.508
2014-03-11 00:52:00,6125E-2,5C000490,-0724,1375,5475,025.7,045.3,0.129,761.1,01.16,0.508
2014-03-11 00:53:00,6182E-2,5C000490,-0724,1375,5492,025.8,045.2,0.129,761.1,01.16,0.508
2014-03-11 00:54:00,6171E-2,5C000490,-0724,1375,5448,025.8,045.2,0.129,761.1,01.16,0.508
2014-03-11 00:55:00,6119E-2,5C000490,-0724,1375,5391,025.8,045.2,0.129,761.1,01.16,0.508
2014-03-11 00:56:00,6202E-2,5C000490,-0724,1375,5478,025.7,045.2,0.129,761.1,01.16,0.508
2014-03-11 00:57:00,6143E-2,5C000490,-0724,1375,5370,025.7,045.2,0.129,761.1,01.16,0.508
2014-03-11 00:58:00,6192E-2,5C000490,-0724,1375,5422,025.8,045.2,0.129,761.0,01.16,0.508
2014-03-11 00:59:00,6167E-2,5C000490,-0724,1375,5394,025.8,045.2,0.129,761.0,01.16,0.508
2014-03-11 01:00:00,6137E-2,5C000490,-0724,1375,5357,025.8,045.2,0.129,761.0,01.16,0.508
2014-03-11 01:01:00,6140E-2,5C000490,-0724,1375,5359,025.8,045.2,0.129,761.1,01.16,0.508
2014-03-11 01:02:00,6125E-2,5C000490,-0724,1375,5387,025.8,045.2,0.129,761.1,01.16,0.508
2014-03-11 01:03:00,6025E-2,5C000490,-0724,1375,5500,025.8,045.2,0.129,761.0,01.16,0.508
2014-03-11 01:04:00,5793E-2,5C000490,-0724,1375,5471,025.7,045.2,0.129,760.9,01.16,0.508
2014-03-11 01:05:00,5827E-2,5C000490,-0724,1375,5448,025.8,045.2,0.129,760.9,01.16,0.508
2014-03-11 01:06:00,5770E-2,5C000490,-0724,1375,5452,025.8,045.2,0.129,760.9,01.16,0.508
2014-03-11 01:07:00,5852E-2,5C000490,-0724,1375,5432,025.7,045.2,0.129,760.8,01.16,0.508
2014-03-11 01:08:00,5867E-2,5C000490,-0724,1375,5403,025.7,045.2,0.129,760.8,01.16,0.508
2014-03-11 01:09:00,5783E-2,5C000490,-0724,1375,5415,025.7,045.2,0.129,760.8,01.16,0.508
2014-03-11 01:10:00,5811E-2,5C000490,-0724,1375,5436,025.8,045.2,0.129,760.8,01.16,0.508
2014-03-11 01:11:00,5830E-2,5C000490,-0724,1375,5400,025.7,045.2,0.129,760.9,01.16,0.508
2014-03-11 01:12:00,5841E-2,5C000490,-0724,1375,5397,025.7,045.2,0.129,760.8,01.16,0.508
2014-03-11 01:13:00,5931E-2,5C000490,-0724,1375,5436,025.7,045.2,0.129,760.9,01.16,0.508
2014-03-11 01:14:00,5806E-2,5C000490,-0724,1375,5380,025.7,045.3,0.129,760.8,01.16,0.508
2014-03-11 01:15:00,5871E-2,5C000490,-0724,1375,5445,025.8,045.2,0.129,760.7,01.16,0.508
2014-03-11 01:16:00,5886E-2,5C000490,-0724,1375,5323,025.8,045.2,0.129,760.8,01.16,0.508
2014-03-11 01:17:00,5831E-2,5C000490,-0724,1375,5374,025.7,045.2,0.129,760.7,01.16,0.508
2014-03-11 01:18:00,5815E-2,5C000490,-0724,1375,5396,025.8,045.2,0.129,760.7,01.16,0.508
2014-03-11 01:19:00,5841E-2,5C000490,-0724,1375,5373,025.7,045.2,0.129,760.7,01.16,0.508
2014-03-11 01:20:00,5906E-2,5C000490,-0724,1375,5364,025.7,045.2,0.129,760.8,01.16,0.508
2014-03-11 01:21:00,5914E-2,5C000490,-0724,1375,5310,025.7,045.3,0.129,760.7,01.16,0.508
2014-03-11 01:22:00,5838E-2,5C000490,-0724,1375,5302,025.7,045.2,0.129,760.6,01.16,0.508
2014-03-11 01:23:00,5873E-2,5C000490,-0724,1375,5342,025.7,045.2,0.129,760.7,01.16,0.508
2014-03-11 01:24:00,5892E-2,5C000490,-0724,1375,5277,025.7,045.3,0.129,760.7,01.16,0.508
2014-03-11 01:25:00,5921E-2,5C000490,-0724,1375,5285,025.7,045.2,0.130,760.6,01.16,0.508
2014-03-11 01:26:00,5856E-2,5C000490,-0724,1375,5301,025.7,045.3,0.129,760.6,01.16,0.508
2014-03-11 01:27:00,5879E-2,5C000490,-0724,1375,5325,025.8,045.2,0.129,760.5,01.16,0.508
2014-03-11 01:28:00,5847E-2,5C000490,-0724,1375,5258,025.7,045.3,0.129,760.5,01.16,0.508
2014-03-11 01:29:00,5846E-2,5C000490,-0724,1375,5271,025.7,045.3,0.129,760.6,01.16,0.508
2014-03-11 01:30:00,5892E-2,5C000490,-0724,1375,5347,025.8,045.3,0.129,760.5,01.16,0.508
2014-03-11 01:31:00,5818E-2,5C000490,-0724,1375,5368,025.7,045.2,0.129,760.5,01.16,0.508
2014-03-11 01:32:00,5916E-2,5C000490,-0724,1375,5420,025.7,045.2,0.129,760.5,01.16,0.508
2014-03-11 01:33:00,5883E-2,5C000490,-0724,1375,5277,025.7,045.3,0.129,760.5,01.16,0.508
2014-03-11 01:34:00,5890E-2,5C000490,-0724,1375,5303,025.7,045.2,0.129,760.5,01.16,0.508
2014-03-11 01:35:00,5923E-2,5C000490,-0724,1375,5337,025.7,045.2,0.129,760.5,01.16,0.508
2014-03-11 01:36:00,5899E-2,5C000490,-0724,1375,5334,025.7,045.2,0.129,760.5,01.16,0.508
2014-03-11 01:37:00,5857E-2,5C000490,-0724,1375,5249,025.7,045.2,0.129,760.5,01.16,0.508
2014-03-11 01:38:00,5897E-2,5C000490,-0724,1375,5223,025.7,045.2,0.130,760.5,01.16,0.508
2014-03-11 01:39:00,5815E-2,5C000490,-0724,1375,5193,025.7,045.2,0.129,760.5,01.16,0.508
2014-03-11 01:40:00,5892E-2,5C000490,-0724,1375,5255,025.7,045.2,0.130,760.5,01.16,0.508
2014-03-11 01:41:00,5849E-2,5C000490,-0724,1375,5263,025.7,045.2,0.129,760.5,01.16,0.508
2014-03-11 01:42:00,5889E-2,5C000490,-0724,1375,5208,025.7,045.2,0.130,760.5,01.16,0.508
2014-03-11 01:43:00,5850E-2,5C000490,-0724,1375,5238,025.7,045.2,0.129,760.5,01.16,0.508
2014-03-11 01:44:00,5900E-2,5C000490,-0724,1375,5258,025.7,045.2,0.130,760.5,01.16,0.508
2014-03-11 01:45:00,5939E-2,5C000490,-0724,1375,5260,025.7,045.2,0.129,760.5,01.16,0.508
2014-03-11 01:46:00,5916E-2,5C000490,-0724,1375,5222,025.7,045.3,0.130,760.5,01.16,0.508
2014-03-11 01:47:00,5899E-2,5C000490,-0724,1375,5248,025.7,045.2,0.130,760.5,01.16,0.508
2014-03-11 01:48:00,5927E-2,5C000490,-0724,1375,5253,025.7,045.2,0.130,760.5,01.16,0.508
2014-03-11 01:49:00,6047E-2,5C000490,-0724,1375,5162,025.7,045.2,0.130,760.5,01.16,0.508
2014-03-11 01:50:00,6125E-2,5C000490,-0724,1375,5155,025.7,045.2,0.130,760.4,01.16,0.508
2014-03-11 01:51:00,6066E-2,5C000490,-0724,1375,5106,025.7,045.2,0.130,760.5,01.16,0.508
2014-03-11 01:52:00,6070E-2,5C000490,-0724,1375,5159,025.7,045.2,0.130,760.5,01.16,0.508
2014-03-11 01:53:00,6095E-2,5C000490,-0724,1375,5159,025.7,045.3,0.130,760.5,01.16,0.508
2014-03-11 01:54:00,6039E-2,5C000490,-0724,1375,5135,025.7,045.2,0.130,760.5,01.16,0.508
2014-03-11 01:55:00,6075E-2,5C000490,-0724,1375,5072,025.6,045.2,0.130,760.5,01.16,0.508
2014-03-11 01:56:00,6028E-2,5C000490,-0724,1375,5127,025.7,045.2,0.130,760.5,01.16,0.508
2014-03-11 01:57:00,6132E-2,5C000490,-0724,1375,5179,025.6,045.2,0.130,760.5,01.16,0.508
2014-03-11 01:58:00,6156E-2,5C000490,-0724,1375,5189,025.6,045.2,0.130,760.5,01.16,0.508
2014-03-11 01:59:00,6178E-2,5C000490,-0724,1375,5190,025.6,045.2,0.130,760.5,01.16,0.508
2014-03-11 02:00:00,6152E-2,5C000490,-0724,1375,5126,025.6,045.2,0.130,760.5,01.16,0.508
2014-03-11 02:01:00,6203E-2,5C000490,-0724,1375,5148,025.6,045.2,0.130,760.5,01.16,0.508
2014-03-11 02:02:00,6110E-2,5C000490,-0724,1375,5152,025.6,045.3,0.130,760.5,01.16,0.508
2014-03-11 02:03:00,6063E-2,5C000490,-0724,1375,5088,025.6,045.2,0.130,760.5,01.16,0.508
2014-03-11 02:04:00,6121E-2,5C000490,-0724,1375,5071,025.6,045.2,0.130,760.4,01.16,0.508
2014-03-11 02:05:00,6169E-2,5C000490,-0724,1375,5099,025.6,045.2,0.130,760.5,01.16,0.508
2014-03-11 02:06:00,6163E-2,5C000490,-0724,1375,5062,025.6,045.2,0.130,760.5,01.16,0.508
2014-03-11 02:07:00,6156E-2,5C000490,-0724,1375,5119,025.6,045.3,0.130,760.5,01.16,0.508
2014-03-11 02:08:00,6143E-2,5C000490,-0724,1375,5144,025.6,045.2,0.130,760.3,01.16,0.508
2014-03-11 02:09:00,6190E-2,5C000490,-0724,1375,5119,025.6,045.2,0.130,760.4,01.16,0.508
2014-03-11 02:10:00,6148E-2,5C000490,-0724,1375,5110,025.6,045.3,0.130,760.4,01.16,0.508
2014-03-11 02:11:00,6002E-2,5C000490,-0724,1375,5070,025.6,045.2,0.130,760.4,01.16,0.508
2014-03-11 02:12:00,6024E-2,5C000490,-0724,1375,5133,025.6,045.2,0.130,760.5,01.16,0.508
2014-03-11 02:13:00,6023E-2,5C000490,-0724,1375,5184,025.6,045.3,0.130,760.4,01.16,0.508
2014-03-11 02:14:00,5955E-2,5C000490,-0724,1375,5083,025.6,045.2,0.130,760.4,01.16,0.508
2014-03-11 02:15:00,5949E-2,5C000490,-0724,1375,5070,025.5,045.2,0.130,760.4,01.16,0.508
2014-03-11 02:16:00,5940E-2,5C000490,-0724,1375,5014,025.5,045.2,0.130,760.4,01.16,0.508
2014-03-11 02:17:00,5976E-2,5C000490,-0724,1375,5040,025.5,045.2,0.130,760.3,01.16,0.508
2014-03-11 02:18:00,5999E-2,5C000490,-0724,1375,5086,025.5,045.2,0.130,760.3,01.16,0.508
2014-03-11 02:19:00,5970E-2,5C000490,-0724,1375,5129,025.5,045.2,0.130,760.3,01.16,0.508
2014-03-11 02:20:00,5999E-2,5C000490,-0724,1375,5080,025.5,045.2,0.130,760.3,01.16,0.508
2014-03-11 02:21:00,5966E-2,5C000490,-0724,1375,5074,025.5,045.2,0.130,760.3,01.16,0.508
2014-03-11 02:22:00,5833E-2,5C000490,-0724,1375,5053,025.5,045.2,0.130,760.3,01.16,0.508
2014-03-11 02:23:00,5882E-2,5C000490,-0724,1375,5085,025.5,045.2,0.130,760.3,01.16,0.508
2014-03-11 02:24:00,5890E-2,5C000490,-0724,1375,5029,025.5,045.2,0.130,760.2,01.16,0.508
2014-03-11 02:25:00,5852E-2,5C000490,-0724,1375,5008,025.5,045.2,0.130,760.2,01.16,0.508
2014-03-11 02:26:00,5894E-2,5C000490,-0724,1375,5041,025.5,045.2,0.130,760.2,01.16,0.508
2014-03-11 02:27:00,5915E-2,5C000490,-0724,1375,5064,025.5,045.2,0.130,760.2,01.16,0.508
2014-03-11 02:28:00,5883E-2,5C000490,-0724,1375,5085,025.5,045.3,0.130,760.2,01.16,0.508
2014-03-11 02:29:00,5927E-2,5C000490,-0724,1375,4995,025.5,045.2,0.130,760.1,01.16,0.508
2014-03-11 02:30:00,5923E-2,5C000490,-0724,1375,4985,025.4,045.2,0.130,760.1,01.16,0.508
2014-03-11 02:31:00,5955E-2,5C000490,-0724,1375,5050,025.5,045.2,0.130,760.1,01.16,0.508
2014-03-11 02:32:00,5885E-2,5C000490,-0724,1375,5020,025.5,045.2,0.130,760.1,01.16,0.508
2014-03-11 02:33:00,5888E-2,5C000490,-0724,1375,5019,025.4,045.2,0.130,760.1,01.16,0.508
2014-03-11 02:34:00,5882E-2,5C000490,-0724,1375,4978,025.4,045.3,0.130,760.1,01.16,0.508
2014-03-11 02:35:00,5929E-2,5C000490,-0724,1375,5009,025.4,045.2,0.130,760.0,01.16,0.508
2014-03-11 02:36:00,5935E-2,5C000490,-0724,1375,4954,025.4,045.2,0.130,759.9,01.16,0.508
2014-03-11 02:37:00,5956E-2,5C000490,-0724,1375,4987,025.4,045.2,0.130,760.0,01.16,0.508
2014-03-11 02:38:00,5970E-2,5C000490,-0724,1375,4942,025.4,045.2,0.131,760.1,01.16,0.508
2014-03-11 02:39:00,5933E-2,5C000490,-0724,1375,4973,025.4,045.2,0.131,760.0,01.16,0.508
2014-03-11 02:40:00,5984E-2,5C000490,-0724,1375,4968,025.4,045.2,0.130,760.0,01.16,0.508
2014-03-11 02:41:00,5981E-2,5C000490,-0724,1375,4939,025.4,045.2,0.130,760.0,01.16,0.508
2014-03-11 02:42:00,5998E-2,5C000490,-0724,1375,5070,025.4,045.2,0.130,760.0,01.16,0.508
2014-03-11 02:43:00,6003E-2,5C000490,-0724,1375,5029,025.4,045.2,0.131,760.0,01.16,0.508
2014-03-11 02:44:00,5938E-2,5C000490,-0724,1375,5071,025.4,045.2,0.131,760.0,01.16,0.508
2014-03-11 02:45:00,5978E-2,5C000490,-0724,1375,5116,025.4,045.2,0.131,760.0,01.16,0.508
2014-03-11 02:46:00,5935E-2,5C000490,-0724,1375,5006,025.4,045.2,0.131,760.0,01.16,0.508
2014-03-11 02:47:00,5902E-2,5C000490,-0724,1375,5092,025.4,045.2,0.131,760.0,01.16,0.508
2014-03-11 02:48:00,5937E-2,5C000490,-0724,1375,5074,025.4,045.2,0.131,760.0,01.16,0.508
2014-03-11 02:49:00,5987E-2,5C000490,-0724,1375,5095,025.3,045.2,0.131,760.1,01.16,0.508
2014-03-11 02:50:00,5944E-2,5C000490,-0724,1375,5071,025.3,045.2,0.131,760.0,01.16,0.508
2014-03-11 02:51:00,5986E-2,5C000490,-0724,1375,5089,025.3,045.2,0.131,760.0,01.16,0.508
2014-03-11 02:52:00,5981E-2,5C000490,-0724,1375,5004,025.3,045.2,0.131,760.0,01.16,0.508
2014-03-11 02:53:00,5955E-2,5C000490,-0724,1375,5073,025.4,045.2,0.131,760.1,01.16,0.508
2014-03-11 02:54:00,5974E-2,5C000490,-0724,1375,4996,025.3,045.2,0.131,760.0,01.16,0.508
2014-03-11 02:55:00,5948E-2,5C000490,-0724,1375,5055,025.4,045.2,0.131,760.0,01.16,0.508
2014-03-11 02:56:00,5969E-2,5C000490,-0724,1375,5004,025.3,045.2,0.131,760.1,01.16,0.508
2014-03-11 02:57:00,6000E-2,5C000490,-0724,1375,5047,025.3,045.2,0.131,760.0,01.16,0.508
2014-03-11 02:58:00,5955E-2,5C000490,-0724,1375,5015,025.3,045.3,0.131,760.1,01.16,0.508
2014-03-11 02:59:00,6058E-2,5C000490,-0724,1375,4984,025.3,045.2,0.131,760.1,01.16,0.508
2014-03-11 03:00:00,5937E-2,5C000490,-0724,1375,5004,025.3,045.2,0.131,760.0,01.16,0.508
2014-03-11 03:01:00,6027E-2,5C000490,-0724,1375,5007,025.3,045.2,0.131,760.0,01.16,0.508
2014-03-11 03:02:00,6003E-2,5C000490,-0724,1375,4969,025.3,045.2,0.131,760.0,01.16,0.508
2014-03-11 03:03:00,5982E-2,5C000490,-0724,1375,4959,025.3,045.2,0.131,760.1,01.16,0.508
2014-03-11 03:04:00,6017E-2,5C000490,-0724,1375,5072,025.3,045.2,0.131,760.1,01.16,0.508
2014-03-11 03:05:00,6059E-2,5C000490,-0724,1375,5053,025.3,045.2,0.131,760.0,01.16,0.508
2014-03-11 03:06:00,6019E-2,5C000490,-0724,1375,5063,025.2,045.2,0.131,759.9,01.16,0.508
2014-03-11 03:07:00,5948E-2,5C000490,-0724,1375,5014,025.2,045.2,0.131,759.9,01.16,0.508
2014-03-11 03:08:00,6044E-2,5C000490,-0724,1375,5030,025.3,045.2,0.131,759.9,01.16,0.508
2014-03-11 03:09:00,5993E-2,5C000490,-0724,1375,4948,025.2,045.2,0.131,760.1,01.16,0.508
2014-03-11 03:10:00,5989E-2,5C000490,-0724,1375,5010,025.2,045.2,0.131,760.0,01.16,0.508
2014-03-11 03:11:00,6070E-2,5C000490,-0724,1375,4960,025.2,045.2,0.131,760.0,01.16,0.508
2014-03-11 03:12:00,6028E-2,5C000490,-0724,1375,4927,025.2,045.2,0.131,760.0,01.16,0.508
2014-03-11 03:13:00,5958E-2,5C000490,-0724,1375,4966,025.2,045.2,0.131,760.1,01.16,0.508
2014-03-11 03:14:00,5993E-2,5C000490,-0724,1375,4999,025.2,045.2,0.131,760.0,01.16,0.508
2014-03-11 03:15:00,5988E-2,5C000490,-0724,1375,4986,025.2,045.2,0.131,760.0,01.16,0.508
2014-03-11 03:16:00,5953E-2,5C000490,-0724,1375,4963,025.2,045.2,0.132,760.1,01.16,0.508
2014-03-11 03:17:00,5959E-2,5C000490,-0724,1375,4995,025.2,045.2,0.132,760.1,01.16,0.508
2014-03-11 03:18:00,5990E-2,5C000490,-0724,1375,4916,025.2,045.2,0.132,760.1,01.16,0.508
2014-03-11 03:19:00,5840E-2,5C000490,-0724,1375,5890,025.2,045.2,0.132,760.2,01.16,0.508
2014-03-11 03:20:00,5668E-2,5C000490,-0724,1375,5887,025.1,045.2,0.132,760.1,01.16,0.508
2014-03-11 03:21:00,5696E-2,5C000490,-0724,1375,5906,025.1,045.2,0.132,760.1,01.16,0.508
2014-03-11 03:22:00,5608E-2,5C000490,-0724,1375,5901,025.1,045.2,0.132,760.1,01.16,0.508
2014-03-11 03:23:00,5623E-2,5C000490,-0724,1375,5895,025.1,045.2,0.132,760.2,01.16,0.508
2014-03-11 03:24:00,5614E-2,5C000490,-0724,1375,5825,025.2,045.2,0.132,760.2,01.16,0.508
2014-03-11 03:25:00,5617E-2,5C000490,-0724,1375,5836,025.2,045.2,0.132,760.2,01.16,0.508
2014-03-11 03:26:00,5614E-2,5C000490,-0724,1375,5693,025.2,045.2,0.132,760.1,01.16,0.508
2014-03-11 03:27:00,5610E-2,5C000490,-0724,1375,5812,025.2,045.2,0.132,760.2,01.16,0.508
2014-03-11 03:28:00,5635E-2,5C000490,-0724,1375,5793,025.2,045.2,0.132,760.2,01.16,0.508
2014-03-11 03:29:00,5628E-2,5C000490,-0724,1375,5773,025.2,045.2,0.132,760.2,01.16,0.508
2014-03-11 03:30:00,5578E-2,5C000490,-0724,1375,5752,025.2,045.2,0.132,760.2,01.16,0.508
2014-03-11 03:31:00,5635E-2,5C000490,-0724,1375,5769,025.2,045.2,0.132,760.2,01.16,0.508
2014-03-11 03:32:00,5604E-2,5C000490,-0724,1375,5698,025.2,045.2,0.132,760.2,01.16,0.508
2014-03-11 03:33:00,5615E-2,5C000490,-0724,1375,5753,025.2,045.2,0.132,760.3,01.16,0.508
2014-03-11 03:34:00,5614E-2,5C000490,-0724,1375,5788,025.2,045.2,0.132,760.3,01.16,0.508
2014-03-11 03:35:00,5651E-2,5C000490,-0724,1375,5733,025.2,045.2,0.132,760.3,01.16,0.508
2014-03-11 03:36:00,5598E-2,5C000490,-0724,1375,5701,025.1,045.2,0.132,760.2,01.16,0.508
2014-03-11 03:37:00,5632E-2,5C000490,-0724,1375,5688,025.2,045.2,0.132,760.3,01.16,0.508
2014-03-11 03:38:00,5582E-2,5C000490,-0724,1375,5696,025.2,045.2,0.132,760.3,01.16,0.508
2014-03-11 03:39:00,5661E-2,5C000490,-0724,1375,5682,025.2,045.2,0.132,760.3,01.16,0.508
2014-03-11 03:40:00,5548E-2,5C000490,-0724,1375,5647,025.2,045.2,0.132,760.3,01.16,0.508
2014-03-11 03:41:00,5586E-2,5C000490,-0724,1375,5635,025.2,045.2,0.132,760.3,01.16,0.508
2014-03-11 03:42:00,5531E-2,5C000490,-0724,1375,5638,025.2,045.2,0.132,760.3,01.16,0.508
2014-03-11 03:43:00,5653E-2,5C000490,-0724,1375,5618,025.2,045.2,0.132,760.2,01.16,0.508
2014-03-11 03:44:00,5675E-2,5C000490,-0724,1375,5651,025.2,045.2,0.132,760.3,01.16,0.508
2014-03-11 03:45:00,5617E-2,5C000490,-0724,1375,5615,025.2,045.2,0.132,760.3,01.16,0.508
2014-03-11 03:46:00,5585E-2,5C000490,-0724,1375,5621,025.2,045.2,0.132,760.2,01.16,0.508
2014-03-11 03:47:00,5551E-2,5C000490,-0724,1375,5652,025.2,045.2,0.132,760.3,01.16,0.508
2014-03-11 03:48:00,5654E-2,5C000490,-0724,1375,5590,025.2,045.2,0.132,760.3,01.16,0.508
2014-03-11 03:49:00,5630E-2,5C000490,-0724,1375,5629,025.2,045.2,0.132,760.2,01.16,0.508
2014-03-11 03:50:00,5656E-2,5C000490,-0724,1375,5608,025.2,045.2,0.132,760.1,01.16,0.508
2014-03-11 03:51:00,5620E-2,5C000490,-0724,1375,5561,025.2,045.2,0.132,760.2,01.16,0.508
2014-03-11 03:52:00,5624E-2,5C000490,-0724,1375,5614,025.2,045.2,0.132,760.2,01.16,0.508
2014-03-11 03:53:00,5617E-2,5C000490,-0724,1375,5504,025.2,045.2,0.132,760.2,01.16,0.508
2014-03-11 03:54:00,5614E-2,5C000490,-0724,1375,5534,025.3,045.2,0.132,760.2,01.16,0.508
2014-03-11 03:55:00,5671E-2,5C000490,-0724,1375,5494,025.2,045.2,0.132,760.2,01.16,0.508
2014-03-11 03:56:00,5617E-2,5C000490,-0724,1375,5459,025.3,045.2,0.132,760.2,01.16,0.508
2014-03-11 03:57:00,5477E-2,5C000480,-0724,1239,10224,025.3,045.3,0.132,760.2,01.16,0.508
2014-03-11 03:58:00,4769E-2,5C000410,-0724,1128,9411,025.3,045.2,0.132,760.1,01.16,0.508
2014-03-11 03:59:00,4591E-2,5C000410,-0724,1125,9270,025.3,045.2,0.132,760.1,01.16,0.508
2014-03-11 04:00:00,4535E-2,5C000410,-0724,1129,9249,025.3,045.2,0.131,760.2,01.16,0.508
2014-03-11 04:01:00,4597E-2,5C000410,-0724,1132,9148,025.3,045.2,0.132,760.2,01.16,0.508
2014-03-11 04:02:00,4615E-2,5C000410,-0724,1136,9129,025.3,045.2,0.131,760.1,01.16,0.508
2014-03-11 04:03:00,4585E-2,5C000410,-0724,1141,9141,025.3,045.2,0.131,760.1,01.16,0.508
2014-03-11 04:04:00,4642E-2,5C000410,-0724,1143,8918,025.3,045.2,0.131,760.0,01.16,0.508
2014-03-11 04:05:00,4587E-2,5C000410,-0724,1146,8986,025.3,045.2,0.131,760.1,01.16,0.508
2014-03-11 04:06:00,4623E-2,5C000410,-0724,1149,9110,025.3,045.2,0.131,760.1,01.16,0.508
2014-03-11 04:07:00,4629E-2,5C000410,-0724,1150,8928,025.3,045.2,0.131,760.2,01.16,0.508
2014-03-11 04:08:00,4587E-2,5C000410,-0724,1152,8855,025.3,045.2,0.131,760.1,01.16,0.508
2014-03-11 04:09:00,4675E-2,5C000410,-0724,1155,9031,025.3,045.2,0.131,760.1,01.16,0.508
2014-03-11 04:10:00,4636E-2,5C000410,-0724,1156,8965,025.3,045.2,0.131,760.1,01.16,0.508
2014-03-11 04:11:00,4654E-2,5C000410,-0724,1158,8956,025.3,045.2,0.131,760.1,01.16,0.508
2014-03-11 04:12:00,4675E-2,5C000410,-0724,1162,8842,025.3,045.2,0.131,760.2,01.16,0.508
2014-03-11 04:13:00,4679E-2,5C000410,-0724,1164,8863,025.3,045.2,0.131,760.2,01.16,0.508
2014-03-11 04:14:00,4647E-2,5C000410,-0724,1165,8830,025.3,045.2,0.131,760.2,01.16,0.508
2014-03-11 04:15:00,4699E-2,5C000410,-0724,1166,8804,025.3,045.2,0.131,760.2,01.16,0.508
2014-03-11 04:16:00,4658E-2,5C000410,-0724,1167,8793,025.4,045.2,0.131,760.2,01.16,0.508
2014-03-11 04:17:00,4693E-2,5C000410,-0724,1169,8844,025.4,045.2,0.131,760.2,01.16,0.508
2014-03-11 04:18:00,4964E-2,5C000410,-0724,1172,8723,025.4,045.2,0.131,760.2,01.16,0.508
2014-03-11 04:19:00,5101E-2,5C000410,-0724,1172,8845,025.4,045.2,0.131,760.2,01.16,0.508
2014-03-11 04:20:00,5183E-2,5C000410,-0724,1174,8805,025.4,045.2,0.131,760.3,01.16,0.508
2014-03-11 04:21:00,5172E-2,5C000410,-0724,1173,8763,025.4,045.2,0.131,760.2,01.16,0.508
2014-03-11 04:22:00,5205E-2,5C000410,-0724,1175,8820,025.3,045.2,0.131,760.2,01.16,0.508
2014-03-11 04:23:00,5168E-2,5C000410,-0724,1178,8816,025.3,045.2,0.131,760.2,01.16,0.508